Theta_e
318 317 317 317 317 322 327 329 328 327 327 324 324 324 321 322 322 321 320 319 319 321 322 322 322 323 324 323 323 324 324 325 325 327 328 326 322 317 317 319 321 322 319 320 319 315 315 317 320 321 322 324 324 324 324 325 326 329 331 332 331 331 330 330 330 329 329 329 329 330 330 330 330 330 329 329 329 328 328 329 329 329 329 329 330 330 331 331 332 332 333 334 334 333 332 331 331
319 319 319 320 320 326 330 330 328 326 325 322 323 323 321 322 321 320 320 320 321 321 321 321 321 323 323 323 322 323 324 323 322 323 322 320 319 316 315 316 317 317 316 318 317 314 314 315 316 315 316 316 317 317 317 316 317 319 322 326 329 330 330 331 331 331 331 331 330 330 330 329 329 329 329 329 329 329 329 329 329 329 329 329 329 329 329 329 329 329 330 330 330 330 330 330 330
319 319 323 325 325 328 331 329 327 324 323 322 322 323 323 321 320 320 321 321 322 321 321 321 321 321 322 323 321 322 324 321 320 320 319 318 317 315 315 314 314 315 315 316 315 314 313 313 314 313 313 313 313 313 313 312 312 312 313 316 318 320 322 324 326 326 327 327 328 329 329 329 329 329 329 329 328 328 328 327 327 327 327 328 328 328 328 328 327 327 326 327 326 326 327 328 328
318 319 326 329 329 329 330 330 328 324 322 321 320 323 323 321 322 322 322 321 321 320 320 320 320 320 321 322 321 322 323 321 320 319 318 317 317 315 314 313 313 313 313 314 313 312 312 312 312 312 312 312 312 312 312 311 311 311 311 311 312 312 313 314 315 316 317 317 318 319 321 322 323 323 322 322 322 321 321 320 319 319 319 320 321 322 323 323 324 325 325 326 326 325 325 325 325
319 320 327 331 332 330 329 329 329 326 325 323 320 323 322 322 323 321 321 320 320 320 320 320 319 320 320 321 320 322 322 321 320 319 319 317 317 316 314 313 313 313 313 313 312 311 310 310 310 310 310 310 310 310 310 310 310 310 310 310 310 310 311 311 311 311 311 311 312 312 312 313 313 314 313 313 313 313 313 313 312 313 312 313 313 313 314 315 316 317 319 321 323 323 323 324 324
321 323 325 328 330 328 328 328 326 326 326 325 322 322 321 322 323 321 320 319 319 319 319 319 319 319 319 320 320 321 322 321 320 319 319 318 316 315 314 313 313 312 312 312 310 309 308 309 309 309 308 308 308 308 308 308 308 309 309 309 309 309 309 309 309 310 309 309 310 310 310 309 309 310 309 309 309 309 309 309 309 310 310 310 310 310 311 311 311 312 313 314 315 316 317 319 320
323 326 325 326 327 325 327 326 324 324 324 325 323 322 322 322 322 321 319 319 318 318 319 320 319 319 319 319 319 319 320 320 319 317 318 318 316 315 314 313 313 312 311 310 308 308 308 308 308 308 307 308 308 308 307 308 307 308 308 308 308 308 308 308 308 308 307 307 307 307 307 306 306 306 306 306 306 306 306 306 306 306 306 306 307 307 307 308 309 309 309 310 310 311 312 312 313
323 326 325 326 328 325 325 324 323 323 323 323 322 322 322 322 322 321 320 319 318 318 318 319 319 319 319 319 319 318 318 318 318 317 317 318 316 315 314 313 313 312 310 309 308 308 308 307 307 307 307 307 307 307 307 307 307 307 307 307 307 307 307 307 306 305 305 304 304 304 303 303 303 303 303 303 303 303 303 303 303 303 303 304 304 304 304 304 304 305 305 306 306 307 308 309 309
323 325 324 325 326 326 326 325 324 323 322 322 321 320 321 322 322 321 320 319 319 318 318 318 318 318 319 319 318 318 318 317 317 317 316 317 317 315 314 314 313 312 310 309 308 308 307 307 307 307 307 307 307 307 307 307 307 307 307 307 306 306 305 304 303 303 303 302 302 302 302 302 302 302 303 303 303 303 303 303 303 303 303 303 303 303 303 303 303 303 303 304 304 304 304 305 305
324 323 323 325 325 324 324 324 325 324 322 321 320 320 320 321 321 321 320 319 319 319 318 318 318 318 318 318 318 318 318 317 316 316 316 316 316 315 314 314 313 311 309 308 308 308 308 308 307 307 307 307 307 307 307 307 307 306 306 305 304 303 302 302 302 302 302 302 302 302 302 302 302 302 302 302 302 302 302 303 303 303 303 303 303 303 303 303 303 303 303 303 303 303 303 303 304
324 323 322 324 324 322 322 322 325 325 322 321 321 319 320 321 320 320 320 320 319 319 319 318 318 318 318 318 318 318 318 317 316 316 316 315 315 315 314 314 313 311 309 309 308 308 308 308 307 307 307 306 306 306 306 306 306 305 304 303 302 302 302 302 302 302 302 302 302 302 302 302 302 302 302 302 302 302 302 302 302 302 302 302 302 302 303 303 303 303 303 303 303 303 303 303 303
325 326 324 323 322 321 322 323 325 325 323 322 321 319 320 321 320 320 320 320 319 319 319 318 318 318 318 317 318 318 318 317 316 315 315 315 315 314 314 313 313 311 309 309 308 308 308 307 307 306 306 306 306 306 306 305 305 304 303 302 301 301 301 301 301 301 301 301 302 301 302 302 302 302 302 301 301 301 301 301 301 301 301 301 301 301 302 302 302 302 302 303 303 303 303 303 303
323 325 326 325 324 323 324 325 326 325 324 323 320 319 319 320 320 320 320 320 319 319 319 318 318 317 318 317 317 317 317 317 317 316 315 315 314 314 314 313 313 312 310 309 308 308 308 307 306 306 306 305 306 306 305 305 304 303 302 301 301 301 301 301 301 301 301 301 301 301 302 302 301 301 301 301 301 301 301 301 301 301 301 301 301 301 301 301 301 301 301 302 302 302 302 302 303
322 322 324 326 326 324 325 325 325 325 323 321 319 318 319 319 320 319 320 320 319 319 319 318 317 317 317 317 317 317 317 317 316 315 315 315 314 314 313 313 313 311 310 309 309 308 308 307 306 306 306 306 306 306 305 305 304 302 301 301 301 301 301 301 301 301 301 302 302 302 302 302 301 301 301 301 301 301 301 301 301 301 301 301 301 301 301 301 301 301 301 301 301 301 301 302 302
321 322 324 325 324 323 324 325 325 324 322 321 319 318 319 319 319 319 319 319 319 318 318 318 317 317 316 317 317 317 317 316 316 315 315 315 314 314 314 314 313 312 310 309 309 309 309 308 307 307 306 306 306 306 306 305 304 302 301 301 301 301 301 301 301 302 302 302 302 303 303 302 303 303 303 303 302 302 302 301 301 301 301 301 301 301 301 301 301 301 301 301 301 301 301 301 301
320 321 324 323 323 322 324 326 325 323 322 319 318 318 318 318 319 319 318 318 318 317 317 317 317 316 316 316 317 317 317 316 315 314 314 314 314 314 314 314 313 313 311 310 309 309 309 308 307 307 307 307 306 306 306 305 304 302 301 301 301 301 301 301 302 302 303 303 304 304 304 304 304 304 304 304 304 304 303 302 302 301 301 301 301 301 301 301 301 300 300 300 301 301 301 301 301
319 321 324 323 323 323 323 326 324 322 322 318 317 318 318 318 318 317 317 317 317 317 317 317 316 316 316 316 316 316 316 315 315 314 314 314 314 314 314 314 314 313 312 311 310 309 309 309 308 308 307 307 306 306 306 305 304 302 301 301 301 301 302 302 302 303 303 304 304 304 305 305 305 305 305 305 305 305 304 303 303 302 301 301 301 301 300 300 300 300 300 300 300 300 300 301 301
321 322 324 323 324 323 323 323 321 321 321 318 317 317 318 318 317 316 317 316 316 316 316 316 316 316 316 315 315 314 315 315 314 314 314 314 314 314 314 314 314 313 313 312 311 310 309 309 309 308 308 307 307 306 306 305 304 303 302 301 301 302 302 302 303 303 303 304 304 304 304 305 305 305 305 305 305 304 304 304 304 303 302 301 301 301 301 300 300 300 300 300 300 300 300 300 300
322 325 325 324 325 323 321 321 319 319 319 319 318 317 317 317 317 316 316 316 316 315 316 316 316 315 315 315 314 314 314 314 314 314 313 313 313 314 314 314 314 314 313 312 312 310 309 309 309 308 307 307 306 306 306 305 305 303 302 301 301 302 302 302 303 303 303 304 304 304 304 304 304 304 304 304 305 304 304 305 304 304 303 302 302 301 301 300 300 300 300 300 300 300 300 300 300
320 323 324 325 323 321 320 320 319 319 318 318 318 318 317 317 317 315 315 316 316 316 316 315 315 315 315 315 314 314 314 314 314 314 313 313 313 313 313 314 313 314 314 313 312 311 310 308 308 308 307 307 306 306 306 305 305 304 302 301 301 302 302 302 303 303 303 303 303 304 304 304 304 304 304 304 304 304 304 304 304 304 304 303 303 302 301 300 300 300 300 299 300 300 300 300 300
320 321 322 322 320 320 319 319 319 318 317 317 317 318 317 317 316 315 315 316 316 316 316 316 316 316 316 315 314 314 314 314 314 314 313 313 313 313 312 313 313 313 313 313 312 311 310 309 308 308 307 306 306 306 305 305 304 304 303 301 301 301 302 302 303 303 303 303 303 303 303 303 303 303 303 303 304 304 304 304 304 304 304 304 303 302 301 300 300 299 299 299 299 299 299 299 299
320 320 321 320 319 319 319 318 317 317 316 316 316 317 317 317 316 315 315 315 316 316 317 317 317 317 316 315 315 314 314 314 314 314 314 314 313 313 312 312 312 312 312 313 312 312 311 309 308 308 307 306 306 306 305 305 304 304 303 301 301 301 302 302 302 303 303 303 302 302 303 303 303 303 303 303 303 303 303 303 303 303 303 303 303 303 302 301 300 300 299 299 299 299 299 299 299
319 319 319 319 319 318 318 317 317 316 315 315 316 316 317 316 316 316 315 315 316 317 317 317 317 317 317 316 316 315 315 315 315 315 315 314 314 313 313 312 312 312 312 312 312 312 311 310 309 308 307 306 306 306 305 305 304 304 303 301 301 301 301 302 302 302 302 302 302 302 302 302 302 302 302 302 302 303 303 303 303 303 303 303 302 303 302 301 301 300 299 299 299 299 298 298 298
318 318 318 318 319 318 318 317 316 315 315 315 316 315 316 316 316 315 315 315 316 316 316 317 317 317 317 316 316 316 316 316 315 315 315 314 314 313 313 312 312 311 311 311 312 312 311 311 310 308 307 307 306 306 306 305 304 304 303 301 301 301 301 302 302 302 302 302 302 302 302 302 302 302 302 302 302 302 302 302 302 302 302 302 302 302 302 301 300 300 299 299 299 298 298 298 298
317 318 318 318 318 318 317 317 316 315 314 315 315 314 314 315 315 315 315 316 316 316 316 316 316 316 316 316 316 316 315 315 315 315 314 314 313 312 312 311 310 310 310 311 311 311 311 311 310 309 307 307 306 306 305 304 304 304 303 302 301 301 301 301 301 302 302 302 302 302 302 302 302 302 301 301 302 302 302 302 302 302 302 301 301 301 301 300 300 299 299 298 298 298 298 298 298
317 317 318 317 318 318 317 317 316 315 314 314 314 314 314 315 315 315 315 316 316 316 316 316 315 315 315 315 315 315 315 315 314 314 314 313 313 312 311 311 310 309 310 310 310 311 311 311 310 309 308 307 306 306 305 305 305 304 302 302 301 300 301 301 301 301 301 301 301 301 301 301 301 301 301 301 301 301 301 301 301 301 301 301 301 300 300 299 299 298 298 298 298 298 297 297 297
317 317 316 316 316 317 317 317 316 315 315 314 314 314 314 315 314 315 316 316 316 316 316 316 315 315 315 315 314 314 314 314 314 314 313 313 312 312 311 311 310 309 309 309 310 310 310 310 310 309 308 307 306 306 305 305 305 304 303 302 300 300 300 301 301 301 301 301 301 301 301 301 301 301 301 301 301 301 301 301 301 301 301 300 300 300 299 298 298 297 297 297 297 297 297 297 297
317 316 315 315 316 316 316 317 316 316 315 315 314 314 315 315 314 315 315 316 316 316 316 316 315 315 315 314 314 314 314 314 314 313 313 313 313 312 312 311 311 310 309 309 309 310 310 310 310 309 309 307 306 306 305 305 305 304 303 302 300 300 300 300 300 301 301 301 301 301 301 301 301 300 300 300 300 301 301 301 301 301 300 300 299 299 298 297 297 296 296 296 296 296 296 295 295
316 315 315 315 316 316 316 316 316 316 316 315 314 315 315 315 314 315 316 316 315 316 316 316 316 315 315 314 314 313 313 313 313 313 313 313 313 313 312 312 312 310 310 310 309 309 309 310 309 309 308 308 307 306 305 305 305 304 303 302 300 300 300 300 300 300 300 300 300 300 300 301 300 300 300 300 300 300 300 300 300 300 300 299 299 298 297 296 296 296 295 295 295 295 295 295 295
315 315 315 316 316 317 317 317 317 316 315 315 315 316 317 316 315 316 317 316 315 315 315 316 316 315 315 314 314 313 313 313 313 314 314 314 313 313 312 312 311 310 310 309 309 309 309 309 309 308 308 308 307 306 305 305 305 304 303 301 300 300 299 299 300 300 300 300 300 300 300 300 300 300 300 300 300 300 300 300 300 300 300 299 299 298 297 296 295 295 295 295 295 295 295 294 294
316 316 317 317 317 318 319 318 317 316 315 314 315 316 316 316 316 316 317 317 315 315 314 315 315 315 315 314 314 313 313 314 314 315 314 314 314 313 312 312 311 310 309 309 309 309 309 309 309 308 308 308 307 306 306 305 305 304 303 302 301 299 299 299 299 299 300 300 300 300 300 300 300 300 299 300 300 300 300 300 300 300 300 299 298 297 296 295 295 294 294 294 295 294 294 294 293
316 317 318 320 319 318 319 318 317 317 314 313 315 316 316 316 316 317 317 317 316 315 314 315 314 315 315 314 314 313 313 314 314 314 314 313 313 313 313 312 311 311 310 309 309 309 308 308 308 308 308 308 307 306 305 304 304 303 302 302 301 299 299 299 299 299 299 299 299 299 300 300 300 299 299 299 299 300 300 300 299 299 299 298 297 296 295 294 294 294 294 294 294 294 294 294 293
319 318 318 321 320 319 320 318 316 316 314 313 315 316 316 316 316 316 317 317 316 315 314 315 314 315 315 314 314 313 313 313 313 313 313 313 313 313 313 312 312 311 310 309 309 309 309 308 308 308 308 308 307 306 305 304 304 303 302 302 301 299 299 299 299 299 299 299 299 299 299 299 299 299 299 299 299 299 299 299 299 299 299 298 297 295 294 294 294 294 294 293 293 294 293 293 293
320 320 319 320 320 319 320 318 315 315 315 314 314 314 315 316 316 315 316 316 315 314 314 315 315 315 315 315 314 314 314 313 313 313 313 313 312 313 312 312 311 311 310 309 309 309 309 308 308 307 307 307 306 305 304 304 303 303 302 301 301 299 299 299 299 299 299 299 299 299 299 299 299 299 299 299 299 299 299 299 299 299 298 297 296 295 294 294 293 293 294 293 293 293 293 293 293
319 320 318 318 319 319 319 319 316 315 316 315 314 314 314 315 315 315 316 316 315 314 315 315 315 315 315 315 315 315 314 314 313 313 312 312 312 312 312 311 311 310 310 309 308 308 308 307 307 306 306 306 305 304 304 303 303 302 301 301 300 299 298 298 298 298 298 298 299 299 299 299 299 299 298 299 299 299 299 299 299 298 298 297 296 295 294 293 293 293 293 293 293 292 292 292 292
318 319 318 318 318 318 319 319 317 315 316 315 315 315 314 314 315 315 315 316 315 315 315 315 315 315 315 315 316 315 315 315 314 313 312 312 312 312 311 311 310 310 309 308 308 308 307 307 306 306 306 305 305 304 303 303 302 301 301 301 300 299 299 298 298 298 298 298 298 299 299 298 298 298 298 298 299 299 298 298 298 298 297 296 296 295 294 293 293 293 293 292 293 292 292 292 292
318 319 319 319 319 318 318 319 317 315 316 316 316 315 315 316 316 316 316 316 316 315 315 315 315 316 316 316 316 316 315 315 315 314 313 312 311 311 311 311 310 309 308 307 307 308 308 308 307 306 306 305 305 305 305 304 303 302 302 301 301 300 299 298 298 298 298 298 298 298 298 298 298 298 298 298 298 298 298 298 298 297 297 296 295 294 293 293 292 292 292 292 292 292 292 292 291
319 320 320 319 319 318 317 318 317 315 317 317 317 317 316 316 317 316 316 317 316 315 315 316 316 316 316 316 316 316 316 315 315 314 313 312 311 310 310 310 309 309 308 307 308 308 308 308 307 306 306 306 306 306 305 305 304 304 303 302 302 300 299 299 298 298 298 298 298 298 298 298 298 298 298 298 298 298 298 298 297 297 297 296 295 294 293 292 292 292 292 292 291 291 291 291 291
320 321 320 319 318 318 318 319 316 313 316 318 317 317 316 316 317 316 316 316 316 316 316 316 316 316 316 316 316 316 316 316 315 314 313 312 311 310 309 309 309 309 308 308 308 308 308 307 307 306 306 306 306 306 306 305 305 304 302 302 301 300 299 298 298 297 297 297 297 298 298 297 297 297 297 298 298 298 298 297 297 297 296 295 294 293 292 292 291 291 291 291 291 291 291 291 290
320 319 319 317 318 319 318 318 315 313 315 317 317 316 315 315 315 316 316 316 316 316 317 316 316 316 316 316 316 316 316 316 315 314 313 312 311 310 309 309 308 308 308 308 308 308 307 307 307 307 306 306 306 306 305 305 304 302 301 300 299 298 298 297 297 297 297 297 297 298 297 297 297 297 297 297 297 297 297 297 297 296 296 294 293 293 292 292 291 291 291 291 291 291 291 291 290
319 321 319 317 318 319 319 319 318 316 315 315 317 316 316 316 316 316 316 316 316 316 316 316 316 317 317 316 317 317 317 317 316 314 314 312 311 310 309 309 308 308 308 308 308 308 308 307 307 307 307 307 306 306 305 304 303 301 300 299 298 297 297 297 297 297 297 297 297 297 297 297 296 297 297 297 297 297 297 296 296 296 295 294 293 292 292 291 291 291 291 291 291 290 290 290 290
317 321 321 318 319 318 319 322 323 323 321 317 317 317 318 319 319 318 318 319 318 316 316 316 316 316 316 316 316 317 317 317 317 315 314 313 312 310 309 309 308 308 308 308 308 308 308 307 307 307 307 307 306 306 305 304 303 302 301 300 300 299 298 298 298 298 298 298 297 297 297 296 296 296 296 297 297 297 296 296 296 295 294 293 292 292 291 291 291 291 291 291 291 290 289 289 289
315 323 327 321 320 322 323 323 324 327 325 320 319 320 319 319 318 318 320 321 320 318 317 316 315 316 316 315 315 315 316 316 316 315 314 313 312 311 310 309 309 309 309 309 308 307 308 308 308 308 308 307 306 306 305 304 303 302 302 301 301 300 300 300 299 298 298 297 297 297 296 296 296 296 296 296 296 296 296 296 295 295 294 293 292 291 291 291 291 291 290 290 290 290 289 289 289
318 326 328 322 320 323 324 323 324 325 322 319 321 320 319 318 316 318 320 320 320 318 318 317 315 314 315 315 315 315 316 316 316 315 314 313 312 311 311 311 311 311 309 309 308 308 308 308 308 308 308 307 306 306 305 304 303 303 302 301 300 300 299 299 298 297 297 297 296 296 296 296 296 295 295 296 296 296 296 295 295 294 293 292 291 291 291 291 290 290 290 290 290 290 289 289 288
321 323 322 321 322 321 320 321 322 322 319 319 322 321 320 319 316 318 320 318 318 317 317 317 315 314 314 315 315 315 316 316 316 315 315 314 313 312 312 312 312 311 310 310 310 309 309 309 308 308 308 307 307 306 305 304 303 303 302 301 300 299 298 297 297 296 296 296 296 295 295 295 295 295 295 295 295 295 295 295 294 294 293 292 291 291 291 290 290 290 290 290 290 290 289 289 288
320 320 320 320 321 318 318 319 319 319 318 319 322 321 319 318 315 317 319 317 317 316 316 316 314 313 314 315 315 316 317 317 316 315 314 314 313 313 312 312 311 311 311 311 310 310 309 309 308 309 309 308 307 307 306 305 304 302 302 301 300 299 298 296 296 295 295 295 295 295 295 295 295 295 295 295 295 295 295 294 294 293 292 291 291 291 290 290 290 290 290 290 290 290 289 288 287
317 318 318 319 321 318 318 317 317 319 319 318 321 320 317 318 318 318 318 318 317 316 315 315 314 313 314 315 315 316 317 317 316 315 314 314 313 312 312 312 312 312 311 311 311 310 310 310 308 309 309 309 308 308 307 306 304 303 302 301 300 299 298 296 296 295 295 295 295 295 295 295 294 295 295 295 295 294 294 294 293 293 292 291 291 290 290 290 290 290 290 290 290 289 289 287 286
316 318 316 319 322 320 318 317 317 319 319 319 321 320 317 318 319 318 318 317 316 316 315 315 316 314 313 315 316 316 316 317 316 315 314 313 312 312 312 312 313 313 313 313 312 312 312 311 309 308 309 309 309 308 307 307 306 304 303 301 300 299 297 297 296 296 295 295 295 295 295 294 294 294 294 295 295 294 294 293 293 292 291 290 290 290 290 290 290 290 290 290 289 289 288 286 286
318 319 317 319 321 320 321 320 321 321 319 320 323 321 318 317 317 317 317 317 316 316 315 315 315 315 314 316 316 316 317 317 316 315 314 313 313 314 314 314 314 315 315 314 314 313 313 312 310 308 310 310 309 309 308 307 307 306 304 302 300 299 297 296 296 295 295 295 295 295 294 294 294 294 294 294 294 294 294 293 292 291 291 290 290 290 290 290 290 290 290 289 289 288 287 286 286
315 318 319 321 321 319 321 322 324 323 320 320 321 321 321 319 317 318 317 316 316 315 314 314 314 315 316 316 317 317 317 317 316 314 313 313 314 315 316 315 315 315 315 315 314 314 313 312 311 310 310 310 309 309 308 307 308 307 305 303 300 299 297 296 295 295 295 294 294 294 294 294 294 294 294 294 294 294 293 293 292 291 290 290 290 290 290 290 290 290 289 289 289 288 287 286 286
313 316 318 320 322 319 318 321 322 322 322 320 317 321 323 319 319 320 317 315 315 313 315 315 315 317 316 316 318 318 317 316 315 314 313 313 314 316 316 315 314 314 314 314 314 314 313 313 312 311 311 311 310 309 309 308 308 308 306 303 301 299 297 296 295 295 294 294 294 294 294 294 293 293 294 293 293 293 293 292 291 291 290 290 290 289 289 289 289 289 289 289 288 287 286 286 286
315 316 317 318 321 319 317 320 319 318 320 319 317 320 320 315 316 319 317 316 315 313 315 314 315 316 316 317 318 317 317 316 314 314 313 313 314 315 315 315 314 314 313 313 313 313 313 313 313 312 311 311 310 310 309 308 308 307 306 304 302 299 298 296 295 294 294 294 293 293 293 293 293 293 293 293 293 293 293 292 291 290 290 289 289 289 289 289 289 289 289 288 288 287 286 286 286
317 317 319 319 320 320 319 321 319 317 318 317 316 318 317 314 316 317 315 317 316 315 315 314 315 316 315 316 317 316 316 315 314 314 313 313 314 314 315 315 314 314 313 313 313 313 313 313 312 312 310 310 310 310 309 308 307 307 307 305 302 300 298 297 296 295 294 293 293 293 293 293 293 293 293 293 293 292 292 291 290 290 289 289 289 289 289 289 289 289 289 288 287 286 285 285 285
318 320 319 318 320 321 319 319 320 320 319 317 315 315 315 314 317 318 316 315 315 315 316 315 315 314 313 314 316 316 315 315 314 314 313 313 313 314 314 314 314 314 314 313 313 313 313 313 312 312 311 310 311 311 309 308 307 307 306 305 303 301 299 297 296 295 294 293 293 293 293 293 292 292 292 292 292 292 291 291 290 290 289 289 289 289 289 289 289 289 288 287 287 286 285 285 285
316 317 316 317 320 321 319 318 319 319 317 316 315 314 313 314 315 317 317 315 315 315 315 315 315 314 312 313 315 315 315 315 314 314 313 313 313 313 313 313 313 313 313 313 313 313 312 312 312 311 311 310 310 310 309 308 307 307 306 305 303 301 299 297 296 295 294 293 293 293 293 292 292 292 292 292 292 292 291 290 290 289 289 289 289 289 289 289 289 288 288 287 286 286 285 285 285
312 312 313 314 316 319 320 319 318 318 316 315 315 314 315 316 316 318 318 316 315 315 314 315 315 313 312 313 314 315 315 315 315 314 314 313 313 313 312 313 313 312 313 313 312 312 311 312 312 311 311 309 308 308 309 308 307 306 305 304 302 301 299 298 296 295 294 293 293 292 292 292 292 292 292 292 292 291 291 290 290 289 289 289 289 289 289 289 288 288 287 286 286 285 285 285 285
313 313 314 313 313 314 317 317 318 317 316 315 316 316 316 318 318 319 318 315 314 315 315 315 314 313 313 314 314 314 315 315 315 314 313 312 312 312 312 312 312 312 312 312 312 312 311 311 311 311 311 309 308 309 309 308 307 306 304 303 302 301 299 298 296 294 294 293 292 292 292 292 291 291 291 291 291 291 290 290 289 289 289 289 289 289 289 288 288 287 286 286 285 285 285 285 285
315 314 314 313 313 314 315 316 317 317 316 315 316 316 316 317 319 320 317 315 316 316 316 316 314 312 313 314 314 314 314 314 314 313 312 313 312 312 312 312 312 312 312 312 312 311 311 311 311 311 310 310 309 309 309 308 307 305 304 303 301 300 299 297 296 294 294 293 292 292 292 291 291 291 291 291 291 291 290 290 289 289 289 289 289 289 288 287 287 286 286 285 285 285 285 285 285
Wind_Speed
3 3 2 1 2 1 1 1 3 3 2 4 6 5 1 4 4 3 4 5 0 3 7 5 7 7 4 3 3 7 8 5 1 1 2 2 11 23 20 16 16 14 13 10 12 12 9 9 10 9 8 7 6 6 6 5 5 5 6 6 6 6 7 7 7 7 7 7 6 6 7 7 8 9 9 10 10 11 10 10 10 10 10 10 10 9 9 9 9 9 9 9 10 10 12 13 13
2 3 4 3 2 1 3 2 2 3 3 4 5 3 3 4 2 3 4 5 4 6 7 5 5 4 2 3 3 2 8 8 3 4 4 9 18 22 17 16 15 14 12 11 11 8 7 8 8 7 6 5 5 6 6 6 6 6 7 8 8 9 9 9 9 9 9 9 9 9 10 10 11 12 12 12 13 13 13 13 12 12 11 11 11 11 12 12 12 12 12 12 13 13 13 13 13
2 3 6 3 1 1 5 1 2 4 3 4 2 1 3 3 3 4 5 9 10 10 7 5 3 1 2 3 3 2 4 6 3 5 9 15 19 19 17 15 14 13 12 12 11 7 7 8 7 5 4 4 3 4 4 4 4 4 5 6 7 8 8 9 9 10 10 11 11 11 12 12 13 13 13 14 14 14 15 15 15 14 14 13 13 13 13 13 14 14 14 15 16 16 15 15 14
2 3 6 1 3 3 3 2 3 3 4 4 2 1 1 4 7 8 11 12 11 9 6 4 2 1 2 2 2 2 6 4 1 3 10 16 15 16 16 15 14 13 12 12 11 10 10 9 7 6 5 4 3 3 2 1 1 1 2 3 4 5 6 6 7 8 9 9 10 11 11 12 13 13 14 14 15 15 15 16 16 16 16 15 15 15 15 15 15 15 15 16 17 17 16 17 16
3 3 6 4 2 2 2 2 3 4 5 5 1 1 2 6 9 8 10 11 8 7 5 3 2 1 5 4 2 1 6 4 2 3 7 11 14 17 15 15 15 13 13 13 12 11 10 9 8 7 6 6 5 4 4 3 2 2 1 1 1 2 3 3 4 4 5 6 6 7 8 9 10 10 11 12 12 13 13 13 13 14 14 15 15 16 16 17 17 17 17 17 18 18 18 18 18
4 2 3 2 3 3 2 2 3 5 5 5 2 2 4 7 11 10 11 10 8 6 5 4 2 2 2 4 3 2 5 4 3 4 6 9 14 18 16 16 15 14 15 13 11 9 8 8 7 7 7 7 6 5 5 4 3 3 2 2 2 1 1 2 2 2 3 3 4 4 5 6 6 7 8 9 9 10 10 10 11 12 12 13 13 14 15 16 17 18 18 18 19 19 19 19 19
4 2 2 2 3 3 2 3 4 5 4 3 2 3 5 10 13 12 9 6 4 4 6 5 2 1 1 3 4 6 7 8 6 1 4 10 15 17 17 16 16 15 14 10 8 7 7 7 6 6 6 6 5 5 4 4 3 3 3 2 2 2 2 2 3 3 3 4 4 5 5 6 6 7 7 8 9 9 10 10 10 11 11 12 12 13 14 15 16 16 17 18 18 19 19 20 20
5 2 2 1 2 2 2 5 5 6 3 1 3 4 5 12 13 10 6 4 4 5 8 6 5 3 2 4 3 6 9 12 12 7 4 9 15 17 16 16 15 13 11 7 6 6 6 6 6 5 4 4 4 4 4 3 3 3 3 3 3 3 3 3 4 4 5 5 5 6 6 6 6 6 7 7 8 9 9 9 9 10 10 11 11 12 13 14 15 15 16 17 18 18 19 19 20
5 1 1 1 2 2 4 5 6 8 4 2 5 4 5 12 11 8 6 5 5 7 10 11 9 5 2 5 4 6 10 11 13 13 9 9 14 17 16 15 13 11 8 6 6 6 5 5 4 4 3 3 3 3 2 2 2 3 3 3 3 3 4 4 5 5 5 5 5 5 5 5 5 5 6 6 7 7 7 8 8 9 9 9 10 10 11 12 13 14 14 15 16 17 17 18 19
2 4 2 0 3 3 4 5 6 5 2 3 5 5 6 9 9 8 8 6 7 7 10 12 11 8 4 3 5 8 11 9 10 14 13 12 14 17 17 15 12 10 8 7 6 6 5 4 5 5 4 3 3 2 1 1 2 2 2 3 3 3 4 4 4 4 4 4 4 4 4 5 5 5 5 6 6 6 7 7 7 8 8 9 9 9 10 11 12 13 14 14 15 15 16 16 17
4 6 2 2 3 4 5 5 4 1 4 3 5 6 6 8 8 7 8 6 9 9 9 11 8 12 9 4 6 9 10 9 9 11 13 15 15 17 17 16 13 11 9 8 7 7 7 7 7 7 6 5 3 2 1 0 1 2 2 2 3 3 3 3 3 3 3 3 3 4 4 4 5 5 5 6 6 7 7 8 8 8 9 9 9 10 10 10 11 12 13 14 14 15 16 16 16
4 4 3 2 4 4 5 4 5 5 2 2 5 8 7 8 7 6 8 6 10 10 11 13 5 8 8 5 8 10 12 11 11 11 13 15 17 18 18 17 15 13 11 10 9 9 9 10 9 7 6 5 4 2 1 0 1 2 2 3 3 3 2 2 2 2 2 3 3 4 4 5 5 6 6 7 7 8 9 9 10 10 11 11 12 12 12 12 13 13 13 14 14 15 15 16 17
4 3 1 2 4 4 6 5 5 6 3 2 4 9 8 8 7 7 8 7 11 9 10 15 7 5 5 3 6 11 14 13 13 13 13 15 18 19 19 18 17 15 13 12 11 11 12 11 9 7 6 5 4 2 1 1 1 2 3 3 3 3 2 2 2 2 3 4 4 5 6 7 7 8 9 9 10 11 11 12 12 13 14 14 15 15 15 16 16 16 16 16 16 16 17 17 17
5 6 3 2 4 4 5 5 4 5 3 2 7 9 7 6 7 8 7 6 9 8 7 12 10 5 5 4 5 12 15 14 16 14 14 16 19 20 20 20 18 16 15 14 14 14 14 11 9 8 6 5 4 3 2 2 2 3 3 3 3 3 2 2 2 3 4 5 5 7 8 8 9 10 11 11 12 12 13 14 14 14 15 15 16 16 17 17 18 18 18 18 18 18 19 19 19
6 6 3 2 4 5 4 4 4 4 2 3 5 7 6 5 6 7 7 5 3 6 7 11 13 5 4 6 5 12 13 13 14 13 15 18 19 20 21 21 19 18 17 17 16 16 15 12 10 9 7 7 5 3 3 2 3 3 3 4 3 2 1 1 2 3 4 5 6 7 8 9 10 11 12 12 13 14 14 15 15 16 16 17 17 17 18 18 18 19 19 19 19 20 20 20 20
7 3 2 2 4 5 4 3 2 3 1 3 5 5 4 6 8 7 7 5 1 5 10 11 15 10 4 5 7 10 11 9 10 10 15 18 19 21 22 22 21 20 20 20 18 18 17 13 12 10 9 8 6 5 4 3 4 4 4 4 4 3 2 1 1 3 4 5 6 7 8 9 10 11 12 13 13 14 15 15 16 16 16 17 17 17 18 18 18 19 19 19 19 19 20 20 20
4 1 2 3 4 5 3 2 1 1 1 4 6 6 3 4 8 9 9 8 5 6 10 10 14 15 11 11 11 12 11 11 10 10 15 18 19 22 23 23 24 24 23 23 21 20 19 16 14 13 11 9 7 7 6 5 5 5 5 5 5 4 3 1 1 2 3 4 6 6 7 8 9 10 10 11 12 12 13 14 15 15 15 16 16 16 16 17 17 17 17 17 18 18 18 18 19
3 2 3 4 5 5 1 3 3 2 2 2 4 6 4 3 6 10 8 10 12 9 12 13 13 15 17 18 17 16 17 16 15 14 16 18 20 22 23 25 26 26 26 26 24 23 22 19 17 15 13 11 10 9 8 7 7 6 6 6 6 5 4 3 3 3 3 4 5 5 6 7 7 8 8 9 9 10 11 12 13 13 14 15 15 15 16 16 16 16 17 17 17 18 18 18 18
6 3 2 5 4 3 2 3 4 4 4 4 2 5 5 5 5 8 5 7 13 11 13 14 15 16 19 23 22 22 23 21 21 19 18 19 20 22 23 25 26 27 27 27 27 26 24 22 20 18 16 14 12 11 10 10 9 8 8 8 8 7 6 5 5 4 4 5 5 5 6 6 6 7 7 7 8 8 9 10 11 12 12 13 14 14 15 15 15 16 16 17 17 18 18 18 19
8 5 3 6 3 5 7 5 3 3 4 6 7 4 6 8 5 7 5 6 10 11 14 14 18 23 24 26 25 26 27 26 26 24 23 22 21 22 24 25 26 27 27 28 29 28 27 24 23 20 18 16 15 14 13 12 11 10 10 10 10 9 9 8 7 7 7 7 6 6 6 7 7 7 8 8 8 8 8 9 9 10 11 12 13 14 14 14 15 15 15 16 16 17 18 18 18
6 6 4 6 2 3 5 3 1 1 2 5 9 5 6 10 8 8 7 5 7 13 19 20 23 27 26 27 28 28 29 29 29 28 27 25 24 24 25 25 25 27 27 28 30 30 29 27 25 23 20 18 17 16 15 14 13 12 12 12 12 12 11 10 10 9 9 8 7 7 7 7 8 8 9 9 9 9 9 9 10 11 12 13 14 15 15 16 15 15 15 16 16 17 17 18 18
3 7 10 14 10 4 2 1 3 4 4 5 7 7 7 9 10 14 11 7 10 12 15 20 25 26 23 26 28 28 29 29 30 30 29 28 27 26 26 27 27 28 29 30 30 31 30 29 27 25 22 21 20 18 17 16 15 15 14 14 14 14 13 13 12 12 11 10 9 8 8 8 9 9 9 10 9 10 10 10 11 11 13 14 15 16 16 17 17 17 17 17 17 18 18 19 19
4 8 13 18 15 8 4 4 6 6 5 6 6 7 9 9 10 15 17 20 23 17 11 14 18 21 21 24 27 29 29 28 29 28 28 28 27 27 27 28 29 29 30 30 31 31 31 31 30 27 24 23 22 21 20 18 17 17 17 16 16 16 15 15 14 13 13 12 11 10 9 9 9 10 10 10 10 10 10 10 11 12 13 14 15 16 17 17 18 18 18 18 18 19 19 19 19
6 6 10 16 15 10 9 7 8 8 7 9 8 7 9 10 9 12 21 29 32 26 20 19 18 17 18 22 26 28 28 28 28 27 26 27 27 27 27 28 29 30 31 31 32 31 32 32 31 29 27 25 24 23 21 20 20 20 18 19 19 18 17 17 16 15 14 13 12 11 10 10 10 10 10 11 11 11 11 11 11 12 13 14 15 16 16 17 18 18 18 18 19 19 19 20 20
8 8 11 13 11 10 11 10 11 11 11 11 9 9 12 15 12 14 27 32 29 26 25 25 26 23 20 23 25 26 28 29 29 28 27 28 28 28 28 29 30 32 33 32 32 32 32 32 32 31 29 28 26 25 23 22 23 21 20 21 20 20 19 18 17 17 16 14 13 12 12 11 11 11 11 11 11 11 11 11 11 12 13 14 14 15 16 17 17 17 17 18 18 18 19 19 20
5 7 11 11 10 11 12 12 13 12 13 11 8 11 15 18 13 17 34 36 30 28 25 25 27 27 26 26 27 28 30 31 31 31 30 29 29 30 32 31 32 34 34 33 34 33 32 32 33 33 32 30 28 27 26 26 24 23 22 23 22 21 21 19 19 18 17 15 14 14 13 12 12 11 11 11 11 11 11 11 12 12 13 14 14 15 16 17 17 17 17 18 18 18 19 20 20
5 8 11 13 17 18 16 14 14 14 13 12 10 9 14 15 7 13 29 25 22 27 28 28 27 28 30 28 29 31 32 34 34 33 32 32 32 33 34 33 35 36 35 35 36 35 34 33 33 33 33 32 30 29 29 28 26 24 24 24 23 23 22 21 20 19 18 16 15 15 14 13 12 12 11 11 11 11 12 12 12 13 13 14 15 16 16 17 17 17 18 18 19 20 21 22 22
9 8 10 14 18 21 20 17 18 14 9 15 14 7 12 9 5 19 31 18 12 19 24 27 28 30 30 28 29 31 33 34 34 34 35 35 35 36 36 35 36 37 37 37 37 36 35 35 33 34 34 34 33 32 31 30 27 26 25 25 25 24 23 22 22 20 19 18 17 16 15 14 13 12 11 11 11 11 12 12 12 13 13 14 15 16 17 18 18 18 19 20 21 22 23 24 25
8 5 6 12 13 15 19 19 20 15 6 13 11 4 10 9 13 32 40 27 17 16 19 23 27 30 30 30 29 30 33 32 33 35 36 36 36 36 36 35 36 37 38 38 37 37 36 35 34 34 35 35 35 34 33 31 29 28 27 26 26 26 24 24 23 22 20 19 18 17 16 15 14 13 12 11 11 11 12 12 13 13 14 14 15 16 17 18 19 19 20 21 22 23 24 25 26
6 5 4 8 8 9 16 19 19 14 7 14 11 2 9 10 22 35 34 27 23 20 21 22 24 28 30 30 30 31 32 32 34 36 36 36 35 37 36 35 36 36 38 38 38 38 37 36 36 36 36 36 37 36 35 33 32 30 28 28 27 26 26 25 24 23 22 20 19 18 17 16 15 14 13 12 12 12 12 13 14 14 14 15 15 16 17 18 19 20 20 21 22 23 24 25 26
4 6 5 5 4 6 10 10 15 10 8 17 11 4 10 8 18 28 26 24 23 23 25 24 25 28 30 31 32 33 34 35 36 36 36 36 35 36 36 36 36 37 38 39 39 38 38 37 37 37 37 37 38 38 37 35 34 32 30 30 28 28 28 27 26 24 23 21 20 19 18 17 16 15 13 13 12 12 13 13 14 15 15 15 16 17 17 18 19 20 21 21 22 23 24 25 27
3 3 5 4 4 7 7 3 15 11 6 16 11 3 10 12 12 16 21 24 24 24 24 23 26 28 30 32 32 34 35 36 37 36 37 37 36 36 36 36 36 37 39 39 39 39 38 38 37 38 38 37 38 39 38 37 35 33 32 31 29 29 29 28 27 25 24 23 22 20 19 18 17 16 14 13 13 13 13 14 15 15 15 15 16 17 18 18 19 19 20 22 23 23 25 26 27
4 5 5 6 6 7 5 2 11 12 6 11 12 5 7 8 6 5 11 21 23 21 21 22 25 27 29 31 32 34 35 36 37 38 38 37 37 36 36 37 36 37 38 38 39 39 39 39 38 38 38 38 39 40 39 38 37 35 33 32 31 31 31 30 28 27 26 25 23 22 21 20 19 17 15 14 14 14 14 14 15 15 15 15 16 17 18 18 19 19 20 21 23 24 25 27 28
4 5 6 7 8 8 5 2 6 10 7 8 12 9 10 9 7 5 8 16 19 19 20 23 24 26 30 31 31 33 35 36 39 39 38 37 37 36 37 37 37 37 37 38 39 39 38 38 38 38 39 39 39 40 40 39 37 36 35 33 32 32 32 31 30 28 27 26 25 24 22 21 20 18 16 15 15 14 14 14 15 15 15 15 16 17 17 18 18 19 20 20 22 24 26 27 29
6 6 5 6 7 8 8 4 4 10 7 7 9 10 15 14 13 15 14 16 19 20 22 27 29 30 33 33 32 34 35 38 40 38 37 37 36 36 37 37 37 37 37 38 38 38 38 38 39 38 39 39 39 40 39 39 38 37 37 35 34 34 33 32 31 30 29 28 27 26 24 22 21 19 17 16 15 15 15 15 15 16 15 15 16 16 17 18 18 19 20 20 21 23 25 28 30
9 10 7 7 7 7 10 8 5 11 7 8 11 11 14 15 14 16 21 23 22 24 26 28 30 32 34 33 33 34 36 40 40 36 35 35 36 36 37 37 37 37 37 38 38 38 38 38 39 39 39 39 39 40 40 40 40 39 39 37 36 35 35 35 33 32 30 30 29 27 25 23 22 20 18 17 16 16 15 15 16 16 16 16 16 17 17 18 19 19 19 20 21 22 24 27 31
12 11 9 9 8 8 13 10 5 10 6 8 13 13 13 15 13 13 20 23 20 20 22 25 28 32 34 33 33 35 37 39 37 33 33 32 34 35 36 37 37 37 38 38 38 38 38 38 39 39 39 39 40 41 41 41 42 42 41 40 38 37 37 36 35 34 32 31 30 28 26 24 23 21 19 18 17 16 16 16 16 17 16 16 16 17 18 18 19 19 19 20 22 23 24 27 30
12 9 8 8 7 9 14 8 3 7 5 6 10 11 13 14 13 13 17 16 15 19 20 23 30 33 35 33 33 36 34 33 31 30 30 29 31 33 35 37 38 38 39 39 39 37 37 38 39 39 38 39 40 41 41 42 43 43 42 40 39 38 38 38 37 35 34 33 32 30 27 25 24 22 21 19 18 17 16 17 17 17 17 16 17 17 18 18 19 19 20 20 22 24 25 27 30
9 6 5 7 7 9 11 4 2 3 3 5 7 9 11 12 14 14 15 15 19 28 29 30 33 33 34 35 34 33 29 27 28 29 29 28 30 32 34 36 37 38 38 38 38 36 37 38 38 38 38 38 39 40 41 42 42 42 41 40 39 38 38 38 37 36 35 34 33 31 28 27 25 23 22 21 19 18 17 17 17 17 17 17 17 17 18 18 19 19 20 21 22 23 25 27 29
7 6 5 8 8 8 7 3 3 4 5 6 6 8 9 11 14 15 20 26 27 33 37 37 36 34 37 41 36 30 25 25 28 28 28 28 29 31 34 35 36 37 37 37 37 37 38 38 38 38 37 37 38 39 40 41 42 42 41 40 39 39 39 38 38 38 37 36 34 32 30 28 26 25 23 22 20 19 18 18 17 18 18 18 17 17 18 19 19 19 20 21 22 24 26 27 28
8 7 8 10 11 11 9 4 3 4 6 4 3 8 8 10 14 13 16 22 22 26 31 31 35 37 40 42 37 30 25 25 28 29 28 29 30 32 33 33 34 35 36 36 36 36 37 37 37 37 36 36 37 39 40 41 42 43 43 42 42 42 41 41 41 41 40 38 36 33 31 29 28 26 25 23 21 20 19 18 18 18 18 18 18 18 19 19 19 20 20 21 22 24 27 28 29
8 7 11 15 14 12 11 8 4 3 5 3 1 7 7 7 12 12 8 8 11 15 18 20 29 36 37 36 34 29 25 25 28 28 28 29 30 31 31 32 33 33 33 33 33 34 35 35 35 35 35 36 37 39 40 42 44 45 46 46 46 46 45 45 45 43 41 39 37 34 31 30 29 27 26 24 22 20 19 18 18 18 18 18 18 18 19 20 20 21 21 22 22 24 26 29 30
8 4 7 11 11 10 9 7 3 2 5 3 4 2 8 6 8 10 7 6 9 11 10 15 25 31 33 33 29 25 24 26 28 27 27 28 29 30 31 30 30 30 30 30 32 33 33 33 33 33 34 35 36 38 40 42 45 46 48 48 48 48 47 47 45 43 41 38 36 34 33 32 30 28 27 25 23 21 20 19 18 19 19 19 19 19 20 20 21 22 22 23 24 24 26 29 31
6 1 0 1 3 5 5 3 4 4 4 4 4 4 7 12 8 8 9 8 9 10 9 11 20 27 32 34 30 22 21 25 28 28 27 27 29 29 29 27 26 26 27 29 31 31 31 30 31 31 32 34 36 37 40 42 45 46 47 48 48 48 47 46 44 42 40 38 36 35 34 33 31 29 27 25 23 22 21 20 19 19 19 19 20 20 20 21 22 23 23 24 25 25 26 29 31
4 1 2 3 2 1 1 2 4 3 5 5 5 7 5 13 7 7 9 10 10 11 12 12 16 24 31 35 31 21 19 22 24 26 25 25 26 26 25 23 23 24 25 27 27 27 28 29 30 30 31 33 34 36 38 41 44 45 47 48 48 48 47 46 43 41 40 39 38 37 36 34 32 30 28 26 24 23 21 20 20 20 20 20 21 21 21 22 23 24 25 26 26 27 27 29 31
4 2 3 5 3 1 2 2 2 2 6 7 6 8 5 13 10 5 7 9 10 10 11 12 15 23 30 32 28 19 18 21 21 22 21 22 23 22 22 21 21 22 23 23 24 25 26 29 31 29 29 31 32 34 36 39 42 44 46 48 48 48 47 46 44 42 42 42 40 39 37 35 33 31 29 27 25 24 22 21 21 21 21 21 21 22 22 23 24 25 26 27 28 29 29 29 30
2 2 2 2 0 0 1 2 2 1 9 9 9 13 9 9 7 5 8 9 11 10 9 10 13 21 28 27 24 20 19 21 20 19 19 20 22 21 21 21 21 21 21 22 24 25 26 29 31 29 27 29 31 33 34 36 40 43 45 47 47 48 48 47 47 46 45 45 43 40 38 35 33 32 30 28 26 25 23 22 22 21 22 22 22 22 23 24 25 26 27 28 30 30 30 29 30
2 3 2 1 3 2 3 1 3 2 10 6 10 16 13 10 5 2 6 9 12 11 10 11 11 17 25 26 26 24 22 21 19 18 19 21 23 23 23 22 21 21 22 24 24 25 27 29 31 30 28 28 30 31 33 34 37 41 44 46 46 47 48 48 49 48 48 46 44 41 38 36 34 33 31 30 28 25 24 23 22 22 22 23 23 23 24 25 26 27 28 30 31 31 30 28 29
3 4 4 1 3 2 1 2 2 5 10 4 10 13 11 14 9 2 4 6 10 11 10 14 15 16 22 24 24 25 23 21 19 18 19 22 25 26 25 23 23 24 25 25 25 26 27 28 31 31 28 28 29 31 32 32 34 38 41 44 45 46 48 48 49 49 48 46 44 41 39 37 36 34 33 31 29 26 24 23 23 23 23 23 24 24 25 26 27 28 30 31 32 31 30 29 29
7 6 6 5 3 3 3 4 3 6 9 5 7 9 5 9 6 9 12 9 11 14 16 20 19 17 20 20 20 23 23 21 19 17 18 21 24 25 25 24 24 25 24 25 25 26 27 28 30 31 29 29 31 31 32 32 32 35 39 43 44 46 47 48 49 49 48 46 44 41 39 37 36 35 33 31 29 26 25 24 23 23 24 24 24 24 25 26 28 30 31 32 32 31 29 29 30
9 6 5 6 4 3 4 5 6 6 6 4 3 4 4 3 2 12 17 14 15 19 23 26 21 19 22 18 17 21 22 20 18 16 15 18 22 24 24 24 24 23 23 23 24 24 26 28 30 30 29 31 32 32 33 33 32 33 38 41 44 45 47 48 49 49 48 47 44 42 39 38 36 35 33 31 29 27 25 24 24 24 24 24 24 24 25 27 29 31 32 33 32 31 29 29 30
5 5 4 5 4 5 5 6 7 3 4 6 4 4 6 3 5 10 12 13 16 17 22 22 17 21 25 17 17 20 21 20 19 16 14 16 21 24 25 25 25 24 23 23 24 24 25 27 29 31 31 32 33 33 33 33 32 34 37 41 43 45 46 48 49 49 49 47 45 42 40 38 37 35 34 32 29 27 25 25 24 24 24 24 24 25 26 28 31 32 32 33 32 30 29 29 30
3 4 5 5 3 5 5 7 6 2 6 9 6 7 8 6 10 12 11 12 11 11 15 14 15 25 26 18 20 22 22 22 22 19 17 16 20 24 26 26 26 26 26 26 27 26 25 25 27 30 33 34 34 34 35 34 35 35 37 41 43 45 46 48 49 49 49 47 45 43 41 39 38 36 34 32 29 28 26 25 25 25 25 25 25 26 28 30 31 33 32 32 31 29 29 29 30
5 3 5 1 3 1 3 2 3 3 7 9 8 10 10 8 8 6 10 14 13 12 13 12 16 24 21 18 23 26 25 25 23 21 20 18 20 23 26 28 28 29 29 29 29 28 27 26 28 31 33 33 33 35 37 36 36 36 38 41 43 44 46 47 48 49 48 47 46 44 42 40 38 37 35 32 30 28 27 26 26 25 25 25 26 27 29 31 32 33 32 32 30 29 29 30 30
5 3 2 2 1 1 3 3 2 5 7 8 11 14 12 12 11 5 6 14 15 14 14 14 16 18 15 18 25 26 25 24 23 23 21 20 21 24 25 27 29 31 31 30 29 30 29 28 31 33 33 33 33 35 37 37 37 38 40 41 42 44 45 46 47 48 48 48 47 45 43 41 39 37 35 33 31 29 28 27 26 25 25 25 26 28 30 31 32 32 32 31 29 28 29 30 30
1 3 4 1 2 3 4 4 3 5 7 8 12 15 12 9 9 8 9 13 15 14 13 14 15 16 18 21 24 25 23 22 24 24 21 20 22 22 22 24 28 32 33 33 33 33 30 30 33 36 35 35 36 36 37 38 38 39 41 42 43 44 45 46 47 48 48 48 47 46 43 41 39 37 36 34 32 30 28 27 26 25 25 26 27 29 30 32 32 31 30 29 28 28 29 30 31
4 2 3 3 2 1 1 3 3 5 6 6 7 13 12 3 1 6 9 10 11 11 11 11 12 18 24 24 24 24 21 21 24 23 20 22 22 20 20 23 28 32 33 34 35 33 30 30 35 38 38 37 37 37 38 39 39 40 42 43 44 44 45 46 47 47 47 47 47 46 43 41 39 38 36 34 32 30 28 27 26 25 26 26 28 30 31 31 31 30 29 28 28 28 29 30 32
8 8 9 9 7 4 3 6 6 4 4 6 5 12 15 4 5 4 7 9 10 10 11 10 12 19 23 21 21 21 21 23 23 22 23 24 22 20 22 27 30 31 32 33 34 32 31 32 36 39 41 39 38 38 39 39 39 41 42 43 44 45 45 46 47 47 47 47 47 46 43 41 40 38 36 34 32 30 28 27 26 25 26 27 29 30 30 30 30 29 28 28 28 28 30 31 32
Wind_Direction
206 193 190 235 172 112 35 322 289 232 220 257 258 253 161 79 101 125 120 106 136 85 76 72 53 41 74 42 29 77 55 40 55 127 175 174 163 167 168 167 164 171 180 188 205 197 188 199 206 214 210 214 228 238 249 257 269 272 278 283 282 283 285 288 291 297 303 307 310 311 312 313 315 318 319 320 322 324 326 328 329 330 332 330 328 326 323 326 329 328 336 337 328 331 333 330 329
215 147 101 50 127 127 315 203 246 265 223 245 255 242 118 89 113 143 148 125 81 85 93 95 77 46 39 1 357 65 51 50 92 112 127 143 155 166 169 171 169 177 183 194 211 195 180 203 208 215 214 221 238 247 258 265 268 269 270 270 271 275 277 280 282 286 291 296 298 300 300 301 304 307 309 310 312 314 315 317 317 315 316 316 315 314 312 313 313 312 315 316 317 323 326 325 326
207 148 111 51 344 247 309 241 250 293 270 273 290 123 122 112 103 77 74 93 95 98 106 121 123 64 338 323 343 1 74 73 81 101 126 141 154 166 170 174 174 179 188 199 207 194 189 200 201 203 201 208 222 233 248 258 265 267 267 268 270 272 274 277 280 282 285 288 290 292 292 294 296 299 301 302 304 305 307 308 309 309 309 309 307 306 305 305 304 304 304 304 307 312 313 313 315
181 164 129 118 284 243 273 219 232 282 280 284 6 80 103 92 94 74 70 82 98 104 101 124 111 53 259 266 1 41 119 123 59 103 138 149 162 167 169 174 174 178 187 198 199 192 191 190 187 184 179 178 181 185 183 190 233 267 281 283 285 285 287 288 288 288 289 289 289 289 289 290 291 293 295 296 298 299 300 301 302 302 303 303 302 302 301 301 300 299 299 300 301 303 304 304 305
145 153 138 152 252 264 270 255 243 244 257 279 342 86 27 79 100 89 86 85 91 99 95 130 100 102 219 230 328 60 128 153 206 189 169 168 171 169 174 174 174 179 187 199 197 190 184 174 170 164 159 151 149 139 131 122 108 99 77 27 336 319 313 312 307 304 300 299 295 294 293 294 295 296 298 299 301 303 304 305 305 304 303 303 303 304 303 302 301 300 299 298 298 299 299 298 299
105 91 148 173 279 301 298 267 266 252 252 285 327 78 55 88 106 103 99 90 87 111 121 137 121 73 200 210 232 185 144 172 204 203 196 186 176 173 177 177 180 183 193 201 187 178 168 158 152 144 142 134 129 120 113 104 95 88 78 72 49 36 11 357 342 335 327 326 319 316 314 311 311 310 310 310 312 314 315 316 315 315 313 311 311 309 308 307 306 305 303 302 301 299 298 298 297
109 91 214 246 277 266 274 257 264 269 276 319 355 34 54 100 116 118 117 110 94 139 151 147 163 121 188 179 219 227 210 226 236 246 193 188 182 179 179 184 188 189 200 198 167 158 153 145 137 130 127 118 112 103 96 88 80 74 68 62 52 40 25 12 360 351 340 338 332 328 326 322 321 319 318 317 318 319 320 321 320 319 318 316 315 313 311 309 309 308 307 306 304 303 301 300 299
133 124 213 240 274 182 235 254 255 265 265 49 74 29 62 117 131 133 151 169 149 171 170 166 164 185 244 180 224 244 235 244 246 255 233 196 189 187 187 193 195 198 206 189 160 155 147 136 128 122 117 107 97 91 82 74 63 52 44 37 31 15 4 353 344 340 335 332 330 328 327 327 327 326 327 326 328 329 330 331 330 328 326 324 322 319 317 314 313 311 309 307 306 305 303 302 301
142 265 266 203 275 226 236 244 245 252 234 123 99 76 97 132 147 148 167 156 144 173 174 176 170 167 191 185 217 242 240 248 245 245 239 215 201 199 200 204 205 207 206 184 171 158 146 137 133 134 131 123 109 98 80 67 47 30 19 12 3 358 347 341 339 335 336 335 336 338 338 340 342 344 344 343 343 343 344 343 342 340 338 336 333 330 327 325 322 321 318 315 313 310 308 306 303
206 239 270 276 257 266 260 246 242 241 184 82 91 138 142 147 165 165 177 159 149 168 171 176 183 196 197 183 200 228 244 247 244 241 235 226 215 210 210 213 212 210 208 191 178 167 164 164 169 173 168 162 148 135 101 68 33 16 3 358 346 344 339 338 341 339 344 346 351 355 358 1 360 1 358 357 355 353 353 350 349 345 343 341 339 336 332 330 328 327 325 323 322 320 319 315 312
247 215 237 308 250 254 255 260 278 289 117 119 109 142 163 168 178 177 188 176 159 155 155 164 191 219 227 245 213 225 240 241 243 238 231 228 222 218 214 215 215 213 210 200 189 182 184 190 193 189 184 179 169 165 135 35 2 2 342 339 330 334 337 340 347 355 6 8 14 15 15 17 13 12 8 7 3 1 0 357 355 352 350 346 343 341 336 334 331 328 327 326 325 324 323 322 320
255 212 187 239 250 256 267 292 312 332 66 195 147 146 167 176 187 192 192 183 161 149 162 176 188 212 218 244 228 233 234 235 243 237 230 226 222 220 218 217 218 216 213 210 203 194 199 201 200 197 194 192 185 182 185 303 330 329 324 323 324 331 340 355 16 29 37 37 34 30 27 23 19 17 15 14 12 10 7 5 3 360 357 355 352 349 345 342 339 336 333 330 327 325 324 323 322
259 277 222 233 261 264 287 302 308 320 325 315 112 143 167 178 199 209 202 192 169 163 190 199 194 187 212 226 218 236 237 237 243 240 231 223 222 222 220 220 220 218 215 217 211 205 210 208 204 206 205 208 206 201 226 267 304 311 316 319 324 332 346 19 35 44 46 44 38 33 30 24 21 17 16 15 13 11 8 6 3 1 358 355 352 350 348 345 343 341 339 337 334 331 329 327 325
249 299 311 267 283 276 286 282 284 303 290 43 87 134 164 184 210 217 221 211 178 182 205 203 192 183 236 230 215 235 236 237 242 242 229 222 224 223 223 224 224 221 219 220 216 214 216 211 210 214 215 218 221 216 239 270 292 301 311 315 320 325 342 13 27 39 35 33 30 28 26 22 20 16 14 11 8 6 3 2 358 355 352 350 348 346 345 342 341 339 339 338 336 335 332 332 330
251 305 320 258 290 284 274 263 267 292 297 86 108 143 166 192 205 218 235 235 184 177 167 179 187 174 235 221 211 232 234 236 240 237 225 225 226 224 227 227 228 226 224 226 221 221 221 214 213 218 223 223 224 227 240 264 279 292 302 303 305 305 318 2 19 28 23 25 22 21 21 16 13 11 9 5 2 0 357 355 352 350 348 346 344 342 341 339 338 336 336 335 333 333 331 331 331
251 292 308 249 274 274 254 239 257 281 283 112 141 151 166 205 198 211 232 225 170 183 180 182 195 199 226 222 210 226 232 227 230 226 219 227 227 225 230 229 229 229 229 231 227 227 226 219 218 219 223 223 222 226 235 247 261 276 288 289 288 280 282 330 7 15 12 12 9 11 10 6 7 5 3 0 358 356 353 351 348 347 345 343 341 339 339 337 337 335 334 333 332 331 329 328 326
243 237 247 254 256 262 266 242 209 282 273 114 156 169 177 213 198 216 232 227 227 216 214 213 214 220 233 238 231 234 239 234 230 223 220 227 228 226 230 229 229 231 231 232 230 229 228 224 222 221 222 223 221 223 230 236 249 264 274 278 273 266 263 275 313 343 349 354 358 359 359 0 2 0 359 357 355 353 351 348 345 343 340 338 336 334 333 332 331 330 329 329 328 327 325 323 321
207 187 219 238 245 242 280 333 6 6 321 83 172 188 221 229 186 214 235 233 232 239 238 231 233 235 238 242 240 241 244 244 242 236 232 231 230 230 231 231 231 232 232 232 231 229 228 225 224 222 220 222 221 222 225 228 238 248 259 264 258 254 249 256 277 302 319 331 339 339 342 346 348 348 349 349 350 350 347 345 344 341 337 333 330 328 327 326 325 325 325 324 324 322 321 320 319
212 233 238 243 260 270 298 346 1 356 329 329 251 194 228 251 188 198 225 228 221 231 240 231 234 236 237 241 239 242 245 246 247 244 243 239 237 237 235 234 234 236 235 233 234 231 228 225 224 222 219 221 221 222 223 224 230 236 246 250 246 242 239 245 255 266 280 289 300 310 316 321 325 329 332 335 339 341 341 342 343 340 336 332 329 327 325 325 325 325 325 325 324 323 322 322 321
222 228 261 253 270 325 316 340 357 335 326 314 297 235 218 246 215 182 211 243 223 223 229 219 226 231 233 238 238 239 243 244 247 248 247 246 243 241 241 240 239 241 241 238 236 235 230 226 225 223 219 221 222 222 223 223 227 231 237 240 238 236 236 241 247 254 262 269 279 286 294 301 307 312 316 322 326 329 333 335 338 337 336 334 332 329 327 326 326 326 327 327 326 325 324 323 323
217 204 230 265 280 330 314 350 3 275 299 290 292 279 232 244 233 204 211 251 244 233 231 223 229 238 235 233 238 240 242 242 245 248 248 248 246 243 244 246 245 245 245 241 238 237 234 229 227 225 221 221 223 223 223 224 226 229 233 235 234 233 236 241 246 252 257 261 266 271 280 289 296 303 308 312 317 321 324 328 332 337 339 340 338 335 331 329 328 328 329 329 329 329 327 326 326
238 235 244 264 269 282 307 329 226 237 258 267 277 270 249 245 232 221 213 224 243 236 237 234 235 244 241 234 237 240 242 243 244 246 248 249 248 246 244 245 245 243 243 243 241 240 237 233 231 228 223 223 225 225 224 224 227 230 232 233 233 234 237 240 246 250 254 257 259 265 273 281 290 296 301 305 310 313 318 325 331 337 341 343 342 339 335 331 329 328 330 331 331 332 331 330 329
233 253 249 264 268 269 282 266 240 246 248 244 254 261 254 247 239 231 223 232 245 243 242 248 240 239 242 240 238 236 240 244 247 249 251 251 251 250 245 243 244 244 244 245 244 241 238 236 234 230 225 225 226 226 226 225 227 230 231 233 233 234 236 240 244 248 251 254 258 263 270 278 286 291 297 300 303 309 315 322 329 335 339 342 341 340 337 333 330 329 329 330 331 332 331 331 329
225 264 264 276 279 265 263 260 247 247 242 242 253 270 257 239 245 245 238 242 250 252 251 254 252 241 234 236 236 237 242 246 251 255 256 255 255 254 250 244 244 244 245 245 245 243 240 238 236 232 227 226 227 227 228 227 229 230 231 233 233 233 236 239 243 246 249 253 257 262 269 275 282 288 293 296 301 307 313 319 326 331 336 338 338 337 336 332 329 327 327 328 330 330 329 329 329
220 249 259 268 274 263 262 255 247 247 242 244 252 260 249 242 252 261 254 252 253 254 253 251 252 251 241 238 239 239 242 245 250 253 253 254 253 250 246 241 238 240 242 244 246 246 243 240 237 233 229 228 228 229 229 229 230 230 231 233 232 233 236 239 242 245 248 251 255 260 266 272 278 285 289 294 300 305 311 317 322 327 331 333 334 333 332 329 327 325 326 327 327 327 328 327 327
225 260 273 283 284 280 272 248 237 241 240 234 238 248 250 250 255 265 258 256 256 252 249 247 248 251 247 243 244 243 245 247 249 251 252 253 249 245 242 238 235 237 242 243 245 246 245 242 238 234 231 230 229 229 230 230 231 231 233 235 233 234 237 239 242 244 246 248 252 258 263 269 275 281 286 293 298 303 309 314 319 324 327 329 330 329 328 327 326 326 324 324 324 326 327 327 327
292 303 302 298 288 283 273 255 242 236 233 219 218 244 254 249 232 259 262 259 258 250 244 244 243 247 246 242 243 245 247 249 251 251 250 248 245 243 241 238 235 236 239 240 243 245 245 244 240 235 233 231 230 230 231 232 233 233 235 236 234 236 237 239 242 243 245 246 250 256 261 267 273 278 283 290 295 301 305 310 316 320 323 325 327 326 326 325 325 325 324 326 328 329 331 332 332
288 314 312 287 278 273 260 251 244 233 231 219 216 257 260 240 196 247 257 255 246 240 238 238 236 242 245 243 242 242 246 249 250 247 245 246 246 245 241 241 238 234 237 241 243 244 245 245 242 237 233 232 231 230 232 233 234 234 236 236 236 237 237 239 241 242 244 246 249 254 259 264 270 274 279 286 291 297 301 307 312 315 320 322 324 325 325 324 324 326 329 332 333 334 336 336 335
290 306 305 281 274 268 251 243 232 220 219 206 195 282 261 222 219 247 256 251 240 234 232 232 230 236 241 243 242 241 244 246 244 245 247 249 250 248 245 246 242 236 239 241 241 244 246 246 244 239 234 233 233 232 233 234 234 235 237 237 237 237 237 238 240 241 244 246 249 253 257 262 267 270 274 280 286 293 297 304 309 313 318 321 323 324 325 324 325 329 332 334 335 336 336 336 335
277 259 248 275 285 268 250 239 218 203 192 175 157 278 260 222 221 243 259 250 234 231 232 230 228 233 237 242 243 242 244 242 242 247 250 249 248 248 246 246 244 239 238 239 240 244 245 245 244 240 236 235 234 234 233 234 235 236 236 237 237 237 237 239 240 241 244 246 248 251 255 260 265 267 270 276 281 289 295 302 308 313 318 320 322 324 325 325 326 330 333 334 334 334 335 336 335
254 268 244 250 277 269 264 233 187 181 182 169 156 253 261 260 228 236 255 243 224 223 228 230 228 233 238 241 243 244 245 244 247 250 250 248 246 246 246 244 243 240 237 238 241 243 244 244 244 242 239 237 235 235 235 235 235 236 236 237 237 237 238 239 240 242 244 245 247 250 253 258 263 265 267 273 279 287 294 301 309 313 317 320 321 323 323 324 326 329 332 332 331 332 334 335 335
213 250 257 226 231 259 282 216 172 174 175 172 165 235 252 271 255 241 247 231 213 215 225 228 229 235 241 244 244 245 247 248 250 249 247 245 244 244 245 244 242 241 239 239 241 241 243 244 243 242 241 239 236 235 235 235 236 236 237 238 238 238 239 240 241 242 244 245 247 249 253 257 260 263 264 270 277 284 293 301 308 312 315 318 319 320 320 321 324 327 330 330 330 333 334 335 334
211 199 245 237 238 260 269 227 186 172 133 182 198 224 246 258 250 221 218 209 205 213 225 230 233 239 245 248 247 247 248 247 247 246 244 242 242 243 244 243 243 243 241 240 240 241 243 243 243 243 242 240 237 235 234 234 236 236 237 239 238 239 240 241 241 242 243 245 247 249 253 256 258 260 261 267 274 281 290 298 304 308 311 314 316 316 316 317 320 324 326 329 332 334 334 334 333
239 210 238 240 239 257 253 285 221 185 140 194 214 233 251 252 247 225 189 194 203 213 228 240 245 248 251 253 251 250 249 246 246 246 244 242 243 243 242 242 242 241 240 239 241 243 244 244 244 243 242 240 237 235 235 236 237 237 238 239 239 239 240 241 241 242 243 245 247 249 252 254 256 257 259 265 272 279 288 295 301 305 307 310 311 311 312 314 317 320 324 329 333 335 334 334 332
248 239 256 262 246 250 254 279 211 189 185 211 213 231 248 255 262 262 249 227 219 223 236 249 256 257 258 256 253 253 251 250 250 249 247 245 244 243 242 241 240 239 238 237 239 241 242 243 242 241 241 239 237 236 236 236 237 236 237 239 238 238 239 240 241 242 243 245 247 250 251 252 254 255 258 263 269 277 284 291 297 301 303 305 307 308 309 311 314 318 323 329 332 334 334 334 333
260 266 269 274 271 265 264 274 187 180 199 219 216 230 244 251 254 258 260 251 239 239 244 249 253 257 258 256 254 254 252 254 255 251 249 247 245 244 242 241 239 237 237 236 236 238 240 241 240 239 239 239 237 235 235 235 235 235 236 238 238 238 239 240 242 242 243 245 247 250 250 251 252 254 256 261 267 275 281 288 294 297 299 302 304 306 307 309 312 318 323 327 329 332 334 335 335
256 266 268 266 272 272 268 276 207 183 200 218 222 232 242 251 253 252 259 259 251 248 249 250 253 256 258 257 255 253 252 256 257 252 249 248 244 242 240 240 237 234 233 233 235 236 239 242 241 240 240 239 238 237 236 236 236 237 237 239 240 240 240 240 241 242 243 244 247 249 249 250 251 252 255 259 265 272 278 284 289 293 296 298 301 303 305 308 312 317 321 325 329 332 335 337 336
251 255 266 268 263 267 271 279 202 185 205 232 237 246 249 254 261 259 258 258 255 253 254 254 257 260 262 261 258 257 255 254 252 248 246 244 240 236 235 236 235 233 232 232 236 237 239 242 242 242 241 239 240 240 240 239 240 241 242 243 244 242 242 242 243 243 244 245 246 248 248 249 250 251 253 258 263 268 274 280 285 290 293 296 299 301 304 306 310 314 318 324 329 332 335 337 336
264 265 272 273 266 275 279 277 185 179 199 241 251 257 259 261 261 260 255 250 251 254 255 255 257 261 263 263 260 259 255 245 241 240 240 240 237 233 231 233 234 235 235 235 237 238 238 240 241 241 241 241 242 242 242 241 242 243 244 245 244 243 242 242 243 243 243 244 245 246 247 247 248 250 252 256 260 264 270 276 282 287 290 293 296 299 301 303 307 312 317 323 327 330 333 335 336
252 252 260 266 258 264 275 248 203 204 209 240 267 267 261 263 263 259 253 250 251 254 256 257 258 258 261 262 261 258 250 238 233 232 234 236 233 230 230 231 232 233 233 233 234 235 236 238 240 240 241 242 243 243 243 242 242 242 242 242 242 241 241 241 240 240 241 242 244 245 246 246 246 248 250 253 257 261 267 273 279 284 288 290 292 295 298 300 304 309 314 320 325 327 329 332 333
241 227 232 252 250 246 253 245 210 221 233 237 297 287 263 240 247 254 252 249 248 248 251 255 256 257 259 261 261 256 245 238 233 229 231 234 232 231 231 231 231 231 232 232 233 235 236 237 239 241 243 243 244 244 244 242 240 238 237 237 236 236 236 236 237 238 239 241 244 245 244 244 245 247 248 251 254 258 264 270 276 281 284 286 288 291 295 298 301 305 311 316 321 324 325 328 330
259 215 216 239 249 252 258 276 320 310 269 213 156 284 269 205 223 248 249 230 233 236 239 245 251 254 257 258 258 252 239 236 237 235 234 236 235 233 231 229 230 230 232 232 233 234 235 237 240 241 243 244 244 244 243 242 240 239 239 237 237 236 236 237 240 241 242 243 245 245 244 243 244 246 247 249 252 256 262 268 273 278 280 282 285 288 292 295 298 302 307 311 317 322 322 323 327
273 227 217 240 253 259 261 276 292 264 267 229 142 280 285 253 230 247 243 202 217 227 224 236 245 250 254 258 260 253 236 230 232 234 236 237 235 232 230 229 229 230 230 230 230 232 234 236 239 241 243 244 244 244 243 243 242 242 242 243 243 243 243 244 245 245 245 245 245 244 243 242 243 245 246 248 251 256 261 266 270 274 276 279 282 285 289 292 295 299 303 307 313 319 320 320 324
268 265 280 262 262 260 252 251 235 237 289 271 165 148 277 278 251 219 214 202 217 229 223 234 243 246 251 258 262 256 241 232 226 227 232 235 236 234 233 231 230 229 228 227 228 230 232 235 238 240 242 244 244 244 245 244 245 245 245 244 244 244 246 246 246 245 244 243 242 241 240 241 242 243 245 247 250 255 259 263 267 271 274 276 279 283 287 289 293 297 301 305 310 315 318 319 321
247 70 54 78 76 334 93 210 241 286 318 272 185 151 242 277 261 186 189 194 211 224 222 229 240 242 246 254 260 257 247 237 226 226 230 235 237 236 235 233 230 228 226 227 229 230 233 235 236 238 241 243 244 245 246 247 247 247 247 245 244 244 244 244 244 243 243 241 240 240 240 241 242 242 243 246 249 254 257 261 265 268 271 273 276 280 284 287 291 294 299 303 308 312 316 317 318
218 131 70 79 84 29 84 215 245 347 285 251 192 161 214 274 268 191 183 202 210 218 223 226 235 241 244 249 254 252 242 235 226 226 230 236 239 235 232 230 228 228 227 229 231 230 233 234 233 234 238 242 244 245 246 248 248 247 247 246 245 244 242 241 240 239 239 240 239 239 240 241 241 241 243 245 248 252 256 259 263 266 268 270 273 277 281 285 288 293 297 302 306 310 314 315 316
171 130 68 59 228 56 86 228 109 44 268 250 194 181 195 270 276 170 182 200 197 204 219 222 232 242 246 248 247 243 238 232 225 223 224 230 234 231 228 228 227 228 227 228 230 228 231 235 233 231 235 240 242 244 246 248 249 249 248 248 246 245 242 240 239 238 238 239 239 239 240 240 240 240 242 244 247 251 254 257 261 263 266 268 271 275 279 283 286 291 296 300 304 308 311 314 314
118 109 96 356 301 18 38 282 110 199 264 248 181 184 192 233 265 128 193 197 187 195 203 207 220 237 243 244 242 239 237 233 223 217 219 219 221 221 221 223 224 225 225 225 226 226 229 234 232 229 231 236 239 242 244 246 250 251 250 248 247 245 243 241 240 240 240 240 240 240 239 238 239 239 241 243 246 249 252 256 259 261 263 266 269 273 277 282 287 291 295 299 303 307 310 312 313
147 132 127 104 287 308 342 245 163 218 257 246 175 180 200 235 249 240 236 205 188 201 202 202 208 222 236 239 235 231 229 228 220 214 218 216 214 215 215 217 218 220 222 223 224 225 227 232 232 228 229 234 236 239 242 244 249 252 251 249 248 245 242 242 241 241 241 242 241 240 239 238 239 240 241 244 246 249 252 255 258 260 262 265 268 273 277 282 288 291 294 298 302 305 309 311 312
178 160 149 167 210 249 250 241 236 239 258 264 180 176 220 262 249 205 223 222 195 202 210 211 208 215 235 239 226 217 216 220 219 215 220 219 215 215 215 217 219 220 223 224 226 227 229 233 233 229 229 233 236 238 240 243 248 253 253 251 248 245 243 241 241 241 241 241 241 240 240 240 240 241 243 244 247 249 252 255 258 259 262 265 268 273 279 284 287 289 293 297 301 305 308 310 313
195 174 158 190 192 217 242 235 243 259 277 273 179 169 214 253 182 191 208 218 205 199 208 215 216 224 240 237 211 205 207 213 219 220 225 225 220 218 218 220 222 223 225 227 230 232 233 237 236 233 231 233 235 238 240 243 247 252 253 251 248 246 244 242 241 241 241 241 240 239 239 240 240 241 242 244 246 248 252 255 257 259 262 265 270 275 279 282 285 288 292 297 301 305 308 311 313
214 150 155 229 203 196 246 260 249 270 310 270 215 218 234 244 262 222 209 221 216 204 209 213 213 227 236 224 201 206 208 212 220 224 229 229 224 222 222 224 226 226 227 228 232 234 236 240 241 238 237 235 236 239 241 243 246 249 252 251 248 246 243 242 240 239 239 240 240 239 239 239 239 240 242 243 246 249 252 254 256 259 262 266 271 275 278 280 283 287 293 297 301 305 308 311 313
195 143 191 229 165 166 220 276 277 267 278 270 242 248 272 298 278 239 208 218 219 208 213 209 207 225 231 217 209 217 218 220 227 231 236 235 227 226 227 228 230 230 231 232 235 238 239 243 246 246 241 236 237 240 241 242 244 247 250 250 248 246 244 242 241 239 239 238 238 238 237 237 238 239 240 242 245 248 251 253 256 259 262 266 270 273 276 279 283 288 293 298 301 305 308 310 311
131 177 223 242 32 103 172 256 309 270 261 273 263 263 276 287 279 233 190 205 211 207 208 201 208 223 228 221 222 228 229 230 234 237 241 239 233 233 233 234 237 237 238 239 241 244 243 245 250 251 245 240 242 243 241 242 244 247 249 249 248 247 245 243 241 240 239 238 237 237 236 236 236 237 239 241 243 246 249 252 255 258 261 265 269 272 276 279 284 289 294 297 301 306 307 309 311
147 213 282 94 111 230 171 174 229 246 257 275 277 278 273 256 264 276 208 203 204 206 204 199 210 221 226 226 227 232 232 231 233 236 239 239 238 238 237 241 245 244 241 241 245 246 245 248 251 251 249 246 245 245 244 243 245 247 248 249 248 247 245 243 241 240 238 238 237 236 236 235 235 236 237 240 242 245 248 251 254 257 261 265 269 272 275 280 285 290 294 298 301 305 306 308 310
120 349 337 89 163 183 179 187 193 217 247 272 284 286 277 251 251 248 217 197 194 198 199 199 207 217 223 226 229 231 227 226 233 237 239 243 244 241 243 253 258 253 247 246 249 250 250 255 255 251 250 247 243 245 245 244 246 247 248 248 247 245 245 243 241 239 238 238 237 236 235 235 235 235 236 239 242 244 247 251 254 258 262 265 268 272 276 281 286 291 294 297 300 303 304 306 307
193 232 251 215 190 157 213 251 217 202 229 248 272 279 273 264 218 212 189 183 191 190 194 204 211 219 223 225 229 230 225 226 233 236 244 251 246 243 253 267 267 256 249 249 252 252 253 260 262 255 250 247 245 246 246 245 246 248 248 247 246 245 244 242 241 239 238 237 236 235 234 234 234 234 236 238 241 244 247 251 255 258 262 266 268 272 278 283 287 291 294 297 300 302 303 304 304
193 201 211 207 198 184 229 248 227 201 222 226 237 266 268 267 87 134 162 175 189 182 191 209 218 223 226 225 229 234 235 235 235 240 253 252 242 248 265 272 267 256 251 251 250 250 255 264 268 260 251 248 249 250 248 246 247 248 248 247 245 244 243 242 240 238 237 236 235 234 233 233 233 233 235 238 240 244 247 251 255 259 262 266 270 274 280 285 289 292 294 297 299 301 303 303 303